# Mixing ratio of CO2 (xCO2) in dry air measured onboard R/V Kaiyo of the Japan Marine Sciece and Technology Center (JAMSTEC).,,,,,,,,,,,,,,,,,,,,,,
"# Version 2.0; 29 Feb, 2008.",,,,,,,,,,,,,,,,,,,,,,
# Measured by Meteorological Research Institute. ,,,,,,,,,,,,,,,,,,,,,,
# PI : H. Y. Inoue,,,,,,,,,,,,,,,,,,,,,,
# Concetrarion scale = MRI87,,,,,,,,,,,,,,,,,,,,,,
# Date and Time = UTC,,,,,,,,,,,,,,,,,,,,,,
Ship,Cruise,Serial No.,Date,,,Time,,Latitude,Longitude,xCO2_Air,F,xCO2_Sea,F,Wind_Dir,Wind_Spd,Atm_Prs,Atm_Tmp.,SST,F,SSS,F,pH2O
,,,Year,Month,Day,Hour,Min.,Deg.,Deg.,ppm,,ppm,,Deg.,m/s,hPa,deg.C,deg.C,,,,hPa
Kaiyo,9701,1,1996,12,15,11,27,12.635,144.749,386.8,2,-9.99,9,-99,-9.9,1003.4,-99.9,28.24,2,-9.999,9,37.6
Kaiyo,9701,2,1996,12,15,11,39,12.596,144.76,-9.99,9,361.99,2,-99,-9.9,1003.3,-99.9,28.23,2,-9.999,9,37.6
Kaiyo,9701,3,1996,12,15,11,52,12.557,144.771,-9.99,9,362.64,2,-99,-9.9,1003.3,-99.9,28.22,2,-9.999,9,37.6
Kaiyo,9701,4,1996,12,15,11,57,12.539,144.776,371.76,2,-9.99,9,-99,-9.9,1003.3,-99.9,28.22,2,-9.999,9,37.6
Kaiyo,9701,5,1996,12,15,12,10,12.5,144.787,-9.99,9,361.84,2,-99,-9.9,1003.4,-99.9,28.22,2,-9.999,9,37.6
Kaiyo,9701,6,1996,12,15,12,22,12.462,144.798,-9.99,9,362.31,2,-99,-9.9,1003.5,-99.9,28.22,2,-9.999,9,37.6
Kaiyo,9701,7,1996,12,15,12,28,12.444,144.803,392.88,2,-9.99,9,-99,-9.9,1003.5,-99.9,28.25,2,-9.999,9,37.6
Kaiyo,9701,8,1996,12,15,12,57,12.357,144.828,-9.99,9,-9.99,9,-99,-9.9,1003.1,-99.9,28.23,2,-9.999,9,37.6
Kaiyo,9701,9,1996,12,15,13,9,12.319,144.839,-9.99,9,363.51,2,-99,-9.9,1003.1,-99.9,28.22,2,-9.999,9,37.6
Kaiyo,9701,10,1996,12,15,13,22,12.281,144.851,-9.99,9,363.6,2,-99,-9.9,1003.1,-99.9,28.25,2,-9.999,9,37.6
Kaiyo,9701,11,1996,12,15,13,27,12.264,144.857,362.48,2,-9.99,9,-99,-9.9,1003,-99.9,28.25,2,-9.999,9,37.6
Kaiyo,9701,12,1996,12,15,13,40,12.225,144.869,-9.99,9,363.7,2,-99,-9.9,1002.9,-99.9,28.25,2,-9.999,9,37.6
Kaiyo,9701,13,1996,12,15,13,52,12.188,144.882,-9.99,9,363.58,2,-99,-9.9,1002.9,-99.9,28.25,2,-9.999,9,37.6
Kaiyo,9701,14,1996,12,15,13,58,12.171,144.888,362.44,2,-9.99,9,-99,-9.9,1002.9,-99.9,28.23,2,-9.999,9,37.6
Kaiyo,9701,15,1996,12,15,14,27,12.085,144.917,362.58,2,-9.99,9,-99,-9.9,1002.7,-99.9,28.26,2,-9.999,9,37.7
Kaiyo,9701,16,1996,12,15,14,39,12.048,144.931,-9.99,9,364.22,2,-99,-9.9,1002.9,-99.9,28.26,2,-9.999,9,37.7
Kaiyo,9701,17,1996,12,15,14,52,12.011,144.944,-9.99,9,364.49,2,-99,-9.9,1002.8,-99.9,28.28,2,-9.999,9,37.7
Kaiyo,9701,18,1996,12,15,14,57,11.994,144.95,362.33,2,-9.99,9,-99,-9.9,1002.8,-99.9,28.28,2,-9.999,9,37.7
Kaiyo,9701,19,1996,12,15,15,10,11.956,144.963,-9.99,9,363.91,2,-99,-9.9,1002.7,-99.9,28.27,2,-9.999,9,37.7
Kaiyo,9701,20,1996,12,15,15,22,11.919,144.977,-9.99,9,364.21,2,-99,-9.9,1002.5,-99.9,28.3,2,-9.999,9,37.7
Kaiyo,9701,21,1996,12,15,15,28,11.902,144.984,362.26,2,-9.99,9,-99,-9.9,1002.4,-99.9,28.28,2,-9.999,9,37.7
Kaiyo,9701,22,1996,12,15,15,57,11.815,145.016,362.35,2,-9.99,9,-99,-9.9,1002.2,-99.9,28.28,2,-9.999,9,37.7
Kaiyo,9701,23,1996,12,15,16,9,11.777,145.029,-9.99,9,365.01,2,-99,-9.9,1002.1,-99.9,28.3,2,-9.999,9,37.7
Kaiyo,9701,24,1996,12,15,16,22,11.738,145.042,-9.99,9,365.62,2,-99,-9.9,1001.8,-99.9,28.31,2,-9.999,9,37.8
Kaiyo,9701,25,1996,12,15,16,27,11.721,145.049,362.14,2,-9.99,9,-99,-9.9,1001.8,-99.9,28.31,2,-9.999,9,37.8
Kaiyo,9701,26,1996,12,15,16,40,11.684,145.063,-9.99,9,365,2,-99,-9.9,1001.9,-99.9,28.28,2,-9.999,9,37.7
Kaiyo,9701,27,1996,12,15,16,52,11.646,145.078,-9.99,9,364.86,2,-99,-9.9,1001.5,-99.9,28.31,2,-9.999,9,37.8
Kaiyo,9701,28,1996,12,15,16,58,11.628,145.084,362.19,2,-9.99,9,-99,-9.9,1001.5,-99.9,28.33,2,-9.999,9,37.8
Kaiyo,9701,29,1996,12,15,17,27,11.539,145.116,362.34,2,-9.99,9,-99,-9.9,1001.4,-99.9,28.31,2,-9.999,9,37.8
Kaiyo,9701,30,1996,12,15,17,39,11.501,145.13,-9.99,9,364.29,2,-99,-9.9,1001.2,-99.9,28.33,2,-9.999,9,37.8
Kaiyo,9701,31,1996,12,15,17,52,11.463,145.144,-9.99,9,364.42,2,-99,-9.9,1001.1,-99.9,28.35,2,-9.999,9,37.9
Kaiyo,9701,32,1996,12,15,17,57,11.446,145.15,362.18,2,-9.99,9,-99,-9.9,1001.1,-99.9,28.34,2,-9.999,9,37.8
Kaiyo,9701,33,1996,12,15,18,10,11.409,145.164,-9.99,9,364.21,2,-99,-9.9,1001.1,-99.9,28.36,2,-9.999,9,37.9
Kaiyo,9701,34,1996,12,15,18,22,11.371,145.178,-9.99,9,364.51,2,-99,-9.9,1001.2,-99.9,28.36,2,-9.999,9,37.9
Kaiyo,9701,35,1996,12,15,18,28,11.353,145.184,362.19,2,-9.99,9,-99,-9.9,1001.2,-99.9,28.37,2,-9.999,9,37.9
Kaiyo,9701,36,1996,12,15,18,57,11.267,145.216,362.39,2,-9.99,9,-99,-9.9,1001.2,-99.9,28.38,2,-9.999,9,37.9
Kaiyo,9701,37,1996,12,15,19,9,11.23,145.23,-9.99,9,364.68,2,-99,-9.9,1001.2,-99.9,28.37,2,-9.999,9,37.9
Kaiyo,9701,38,1996,12,15,19,22,11.192,145.243,-9.99,9,365.52,2,-99,-9.9,1001.2,-99.9,28.43,2,-9.999,9,38
Kaiyo,9701,39,1996,12,15,19,27,11.175,145.249,362.22,2,-9.99,9,-99,-9.9,1001.3,-99.9,28.45,2,-9.999,9,38.1
Kaiyo,9701,40,1996,12,15,19,40,11.137,145.263,-9.99,9,365.19,2,-99,-9.9,1001.5,-99.9,28.45,2,-9.999,9,38.1
Kaiyo,9701,41,1996,12,15,19,52,11.1,145.275,-9.99,9,365.2,2,-99,-9.9,1001.5,-99.9,28.45,2,-9.999,9,38.1
Kaiyo,9701,42,1996,12,15,19,58,11.083,145.281,362.27,2,-9.99,9,-99,-9.9,1001.5,-99.9,28.45,2,-9.999,9,38.1
Kaiyo,9701,43,1996,12,15,20,27,10.996,145.314,362.5,2,-9.99,9,-99,-9.9,1001.8,-99.9,28.48,2,-9.999,9,38.2
Kaiyo,9701,44,1996,12,15,20,39,10.958,145.328,-9.99,9,365.31,2,-99,-9.9,1001.9,-99.9,28.47,2,-9.999,9,38.1
Kaiyo,9701,45,1996,12,15,20,52,10.919,145.343,-9.99,9,365.47,2,-99,-9.9,1002.1,-99.9,28.47,2,-9.999,9,38.1
Kaiyo,9701,46,1996,12,15,20,57,10.902,145.348,362.32,2,-9.99,9,-99,-9.9,1002.3,-99.9,28.48,2,-9.999,9,38.2
Kaiyo,9701,47,1996,12,15,21,10,10.863,145.362,-9.99,9,363.94,2,-99,-9.9,1002.2,-99.9,28.51,2,-9.999,9,38.2
Kaiyo,9701,48,1996,12,15,21,22,10.824,145.377,-9.99,9,363.26,2,-99,-9.9,1002.3,-99.9,28.55,2,-9.999,9,38.3
Kaiyo,9701,49,1996,12,15,21,28,10.807,145.384,362.37,2,-9.99,9,-99,-9.9,1002.6,-99.9,28.54,2,-9.999,9,38.3
Kaiyo,9701,50,1996,12,15,21,57,10.719,145.416,362.56,2,-9.99,9,-99,-9.9,1002.8,-99.9,28.52,2,-9.999,9,38.2
Kaiyo,9701,51,1996,12,15,22,9,10.682,145.431,-9.99,9,359.09,2,-99,-9.9,1003.1,-99.9,28.53,2,-9.999,9,38.2
Kaiyo,9701,52,1996,12,15,22,22,10.643,145.446,-9.99,9,358.63,2,-99,-9.9,1003.1,-99.9,28.51,2,-9.999,9,38.2
Kaiyo,9701,53,1996,12,15,22,27,10.626,145.453,362.47,2,-9.99,9,-99,-9.9,1003.1,-99.9,28.51,2,-9.999,9,38.2
Kaiyo,9701,54,1996,12,15,22,40,10.588,145.468,-9.99,9,357.84,2,-99,-9.9,1002.9,-99.9,28.49,2,-9.999,9,38.2
Kaiyo,9701,55,1996,12,15,22,52,10.549,145.483,-9.99,9,358.66,2,-99,-9.9,1002.8,-99.9,28.47,2,-9.999,9,38.1
Kaiyo,9701,56,1996,12,15,22,58,10.532,145.49,362.45,2,-9.99,9,-99,-9.9,1002.7,-99.9,28.44,2,-9.999,9,38.1
Kaiyo,9701,57,1996,12,15,23,27,10.44,145.521,362.56,2,-9.99,9,-99,-9.9,1002.3,-99.9,28.46,2,-9.999,9,38.1
Kaiyo,9701,58,1996,12,15,23,39,10.401,145.534,-9.99,9,359.57,2,-99,-9.9,1002.1,-99.9,28.55,2,-9.999,9,38.3
Kaiyo,9701,59,1996,12,15,23,52,10.362,145.547,-9.99,9,357.24,2,-99,-9.9,1002,-99.9,28.59,2,-9.999,9,38.4
Kaiyo,9701,60,1996,12,15,23,57,10.343,145.553,362.32,2,-9.99,9,-99,-9.9,1002,-99.9,28.61,2,-9.999,9,38.4
Kaiyo,9701,61,1996,12,16,0,10,10.304,145.567,-9.99,9,356.87,2,-99,-9.9,1002,-99.9,28.64,2,-9.999,9,38.5
Kaiyo,9701,62,1996,12,16,0,22,10.265,145.579,-9.99,9,357.49,2,-99,-9.9,1002.1,-99.9,28.68,2,-9.999,9,38.6
Kaiyo,9701,63,1996,12,16,0,28,10.247,145.586,362.43,2,-9.99,9,-99,-9.9,1002.2,-99.9,28.69,2,-9.999,9,38.6
Kaiyo,9701,64,1996,12,16,0,57,10.158,145.617,362.59,2,-9.99,9,-99,-9.9,1001.9,-99.9,28.73,2,-9.999,9,38.7
Kaiyo,9701,65,1996,12,16,1,9,10.118,145.631,-9.99,9,358.23,2,-99,-9.9,1001.5,-99.9,28.74,2,-9.999,9,38.7
Kaiyo,9701,66,1996,12,16,1,22,10.079,145.646,-9.99,9,358.57,2,-99,-9.9,1001.3,-99.9,28.77,2,-9.999,9,38.8
Kaiyo,9701,67,1996,12,16,1,27,10.061,145.653,362.36,2,-9.99,9,-99,-9.9,1001.3,-99.9,28.77,2,-9.999,9,38.8
Kaiyo,9701,68,1996,12,16,1,40,10.021,145.667,-9.99,9,358.42,2,-99,-9.9,1001.1,-99.9,28.81,2,-9.999,9,38.9
Kaiyo,9701,69,1996,12,16,1,52,9.982,145.682,-9.99,9,358.76,2,-99,-9.9,1000.9,-99.9,28.82,2,-9.999,9,38.9
Kaiyo,9701,70,1996,12,16,1,58,9.964,145.689,362.23,2,-9.99,9,-99,-9.9,1000.7,-99.9,28.83,2,-9.999,9,38.9
Kaiyo,9701,71,1996,12,16,2,27,9.875,145.723,362.39,2,-9.99,9,-99,-9.9,1000.2,-99.9,28.86,2,-9.999,9,39
Kaiyo,9701,72,1996,12,16,2,39,9.835,145.739,-9.99,9,361.24,2,-99,-9.9,1000,-99.9,28.87,2,-9.999,9,39
Kaiyo,9701,73,1996,12,16,2,52,9.795,145.753,-9.99,9,362.11,2,-99,-9.9,999.9,-99.9,28.91,2,-9.999,9,39.1
Kaiyo,9701,74,1996,12,16,2,57,9.778,145.76,362.26,2,-9.99,9,-99,-9.9,999.9,-99.9,28.93,2,-9.999,9,39.2
Kaiyo,9701,75,1996,12,16,3,10,9.737,145.774,-9.99,9,361.93,2,-99,-9.9,999.8,-99.9,28.91,2,-9.999,9,39.1
Kaiyo,9701,76,1996,12,16,3,22,9.698,145.788,-9.99,9,361.6,2,-99,-9.9,999.4,-99.9,28.88,2,-9.999,9,39
Kaiyo,9701,77,1996,12,16,3,28,9.68,145.794,362.23,2,-9.99,9,-99,-9.9,999.4,-99.9,28.89,2,-9.999,9,39.1
Kaiyo,9701,78,1996,12,16,3,57,9.588,145.826,362.39,2,-9.99,9,-99,-9.9,998.9,-99.9,28.9,2,-9.999,9,39.1
Kaiyo,9701,79,1996,12,16,4,9,9.549,145.841,-9.99,9,362,2,-99,-9.9,998.8,-99.9,28.9,2,-9.999,9,39.1
Kaiyo,9701,80,1996,12,16,4,22,9.51,145.854,-9.99,9,361.96,2,-99,-9.9,998.7,-99.9,28.91,2,-9.999,9,39.1
Kaiyo,9701,81,1996,12,16,4,27,9.492,145.86,362.36,2,-9.99,9,-99,-9.9,998.7,-99.9,28.9,2,-9.999,9,39.1
Kaiyo,9701,82,1996,12,16,4,40,9.453,145.875,-9.99,9,362.38,2,-99,-9.9,998.6,-99.9,28.93,2,-9.999,9,39.2
Kaiyo,9701,83,1996,12,16,4,52,9.414,145.889,-9.99,9,362.96,2,-99,-9.9,998.4,-99.9,28.97,2,-9.999,9,39.3
Kaiyo,9701,84,1996,12,16,4,58,9.397,145.896,362.26,2,-9.99,9,-99,-9.9,998.3,-99.9,28.92,2,-9.999,9,39.1
Kaiyo,9701,85,1996,12,16,5,27,9.307,145.927,362.38,2,-9.99,9,-99,-9.9,998.6,-99.9,29,2,-9.999,9,39.3
Kaiyo,9701,86,1996,12,16,5,39,9.268,145.941,-9.99,9,364.12,2,-99,-9.9,998.8,-99.9,29.02,2,-9.999,9,39.3
Kaiyo,9701,87,1996,12,16,5,52,9.23,145.954,-9.99,9,365.03,2,-99,-9.9,998.7,-99.9,29.11,2,-9.999,9,39.6
Kaiyo,9701,88,1996,12,16,5,57,9.212,145.961,362.29,2,-9.99,9,-99,-9.9,998.7,-99.9,29.13,2,-9.999,9,39.6
Kaiyo,9701,89,1996,12,16,6,10,9.175,145.974,-9.99,9,365.15,2,-99,-9.9,998.6,-99.9,29.12,2,-9.999,9,39.6
Kaiyo,9701,90,1996,12,16,6,22,9.137,145.988,-9.99,9,365.64,2,-99,-9.9,998.6,-99.9,29.12,2,-9.999,9,39.6
Kaiyo,9701,91,1996,12,16,6,28,9.12,145.995,362.27,2,-9.99,9,-99,-9.9,998.7,-99.9,29.13,2,-9.999,9,39.6
Kaiyo,9701,92,1996,12,16,6,57,9.032,146.028,362.33,2,-9.99,9,-99,-9.9,999,-99.9,29.23,2,-9.999,9,39.8
Kaiyo,9701,93,1996,12,16,7,9,8.994,146.042,-9.99,9,365.49,2,-99,-9.9,998.9,-99.9,29.24,2,-9.999,9,39.9
Kaiyo,9701,94,1996,12,16,7,22,8.956,146.056,-9.99,9,364.76,2,-99,-9.9,999,-99.9,29.2,2,-9.999,9,39.8
Kaiyo,9701,95,1996,12,16,7,27,8.939,146.062,362.18,2,-9.99,9,-99,-9.9,999.1,-99.9,29.2,2,-9.999,9,39.8
Kaiyo,9701,96,1996,12,16,7,40,8.901,146.075,-9.99,9,364.04,2,-99,-9.9,999.2,-99.9,29.21,2,-9.999,9,39.8
Kaiyo,9701,97,1996,12,16,7,52,8.864,146.092,-9.99,9,364.32,2,-99,-9.9,999.4,-99.9,29.21,2,-9.999,9,39.8
Kaiyo,9701,98,1996,12,16,7,58,8.849,146.101,362.17,2,-9.99,9,-99,-9.9,999.4,-99.9,29.19,2,-9.999,9,39.7
Kaiyo,9701,99,1996,12,16,8,27,8.763,146.132,362.31,2,-9.99,9,-99,-9.9,999.8,-99.9,29.13,2,-9.999,9,39.6
Kaiyo,9701,100,1996,12,16,8,39,8.725,146.146,-9.99,9,362.63,2,-99,-9.9,1000,-99.9,29.15,2,-9.999,9,39.7
Kaiyo,9701,101,1996,12,16,8,52,8.687,146.16,-9.99,9,363.12,2,-99,-9.9,1000.3,-99.9,29.11,2,-9.999,9,39.6
Kaiyo,9701,102,1996,12,16,8,57,8.67,146.166,362.1,2,-9.99,9,-99,-9.9,1000.2,-99.9,29.1,2,-9.999,9,39.5
Kaiyo,9701,103,1996,12,16,9,10,8.633,146.18,-9.99,9,361.75,2,-99,-9.9,1000.5,-99.9,29.18,2,-9.999,9,39.7
Kaiyo,9701,104,1996,12,16,9,22,8.596,146.195,-9.99,9,364.23,2,-99,-9.9,1000.6,-99.9,29.22,2,-9.999,9,39.8
Kaiyo,9701,105,1996,12,16,9,28,8.579,146.201,362.07,2,-9.99,9,-99,-9.9,1000.7,-99.9,29.22,2,-9.999,9,39.8
Kaiyo,9701,106,1996,12,16,9,57,8.493,146.234,362.23,2,-9.99,9,-99,-9.9,1001.1,-99.9,29.25,2,-9.999,9,39.9
Kaiyo,9701,107,1996,12,16,10,9,8.457,146.248,-9.99,9,364.72,2,-99,-9.9,1001.2,-99.9,29.23,2,-9.999,9,39.8
Kaiyo,9701,108,1996,12,16,10,22,8.419,146.261,-9.99,9,364.76,2,-99,-9.9,1001.2,-99.9,29.27,2,-9.999,9,39.9
Kaiyo,9701,109,1996,12,16,10,27,8.401,146.267,362.14,2,-9.99,9,-99,-9.9,1001.4,-99.9,29.26,2,-9.999,9,39.9
Kaiyo,9701,110,1996,12,16,10,40,8.363,146.282,-9.99,9,364.53,2,-99,-9.9,1001.4,-99.9,29.26,2,-9.999,9,39.9
Kaiyo,9701,111,1996,12,16,10,52,8.325,146.294,-9.99,9,364.55,2,-99,-9.9,1001.4,-99.9,29.22,2,-9.999,9,39.8
Kaiyo,9701,112,1996,12,16,10,58,8.308,146.3,362.14,2,-9.99,9,-99,-9.9,1001.3,-99.9,29.23,2,-9.999,9,39.8
Kaiyo,9701,113,1996,12,16,11,27,8.219,146.332,362.2,2,-9.99,9,-99,-9.9,1001.4,-99.9,29.23,2,-9.999,9,39.8
Kaiyo,9701,114,1996,12,16,11,39,8.181,146.346,-9.99,9,364.96,2,-99,-9.9,1001.4,-99.9,29.26,2,-9.999,9,39.9
Kaiyo,9701,115,1996,12,16,11,52,8.142,146.36,-9.99,9,365.04,2,-99,-9.9,1001.2,-99.9,29.31,2,-9.999,9,40
Kaiyo,9701,116,1996,12,16,11,57,8.125,146.366,362.08,2,-9.99,9,-99,-9.9,1001.2,-99.9,29.29,2,-9.999,9,40
Kaiyo,9701,117,1996,12,16,12,10,8.088,146.379,-9.99,9,364.98,2,-99,-9.9,1001.3,-99.9,29.31,2,-9.999,9,40
Kaiyo,9701,118,1996,12,16,12,22,8.049,146.392,-9.99,9,365.23,2,-99,-9.9,1001.4,-99.9,29.32,2,-9.999,9,40
Kaiyo,9701,119,1996,12,16,12,28,8.032,146.398,362.05,2,-9.99,9,-99,-9.9,1001.4,-99.9,29.31,2,-9.999,9,40
Kaiyo,9701,120,1996,12,16,12,57,7.944,146.429,362.21,2,-9.99,9,-99,-9.9,1001.2,-99.9,29.34,2,-9.999,9,40.1
Kaiyo,9701,121,1996,12,16,13,9,7.907,146.442,-9.99,9,364.07,2,-99,-9.9,1001.3,-99.9,29.34,2,-9.999,9,40.1
Kaiyo,9701,122,1996,12,16,13,22,7.869,146.457,-9.99,9,364.85,2,-99,-9.9,1001.4,-99.9,29.36,2,-9.999,9,40.1
Kaiyo,9701,123,1996,12,16,13,27,7.852,146.463,362.06,2,-9.99,9,-99,-9.9,1001.3,-99.9,29.35,2,-9.999,9,40.1
Kaiyo,9701,124,1996,12,16,13,40,7.815,146.478,-9.99,9,365.31,2,-99,-9.9,1001.1,-99.9,29.37,2,-9.999,9,40.2
Kaiyo,9701,125,1996,12,16,13,52,7.777,146.494,-9.99,9,365.23,2,-99,-9.9,1000.9,-99.9,29.35,2,-9.999,9,40.1
Kaiyo,9701,126,1996,12,16,13,58,7.761,146.504,362.05,2,-9.99,9,-99,-9.9,1000.9,-99.9,29.37,2,-9.999,9,40.2
Kaiyo,9701,127,1996,12,16,14,27,7.676,146.549,362.4,2,-9.99,9,-99,-9.9,1000.8,-99.9,29.37,2,-9.999,9,40.2
Kaiyo,9701,128,1996,12,16,14,39,7.639,146.569,-9.99,9,365.42,2,-99,-9.9,1000.7,-99.9,29.37,2,-9.999,9,40.2
Kaiyo,9701,129,1996,12,16,14,52,7.601,146.589,-9.99,9,364.99,2,-99,-9.9,1000.6,-99.9,29.37,2,-9.999,9,40.2
Kaiyo,9701,130,1996,12,16,14,57,7.584,146.598,362.12,2,-9.99,9,-99,-9.9,1000.5,-99.9,29.37,2,-9.999,9,40.2
Kaiyo,9701,131,1996,12,16,15,10,7.545,146.618,-9.99,9,365.11,2,-99,-9.9,1000.3,-99.9,29.39,2,-9.999,9,40.2
Kaiyo,9701,132,1996,12,16,15,22,7.507,146.638,-9.99,9,366.02,2,-99,-9.9,1000.1,-99.9,29.4,2,-9.999,9,40.2
Kaiyo,9701,133,1996,12,16,15,28,7.489,146.647,362.05,2,-9.99,9,-99,-9.9,1000,-99.9,29.38,2,-9.999,9,40.2
Kaiyo,9701,134,1996,12,16,15,57,7.398,146.695,362.21,2,-9.99,9,-99,-9.9,999.9,-99.9,29.37,2,-9.999,9,40.2
Kaiyo,9701,135,1996,12,16,16,9,7.359,146.715,-9.99,9,365.98,2,-99,-9.9,999.7,-99.9,29.39,2,-9.999,9,40.2
Kaiyo,9701,136,1996,12,16,16,22,7.32,146.735,-9.99,9,366.27,2,-99,-9.9,999.6,-99.9,29.38,2,-9.999,9,40.2
Kaiyo,9701,137,1996,12,16,16,27,7.303,146.745,362.05,2,-9.99,9,-99,-9.9,999.6,-99.9,29.36,2,-9.999,9,40.1
Kaiyo,9701,138,1996,12,16,16,40,7.266,146.765,-9.99,9,366.19,2,-99,-9.9,999.5,-99.9,29.36,2,-9.999,9,40.1
Kaiyo,9701,139,1996,12,16,16,52,7.228,146.785,-9.99,9,366.22,2,-99,-9.9,999.3,-99.9,29.35,2,-9.999,9,40.1
Kaiyo,9701,140,1996,12,16,16,58,7.211,146.794,362.16,2,-9.99,9,-99,-9.9,999.2,-99.9,29.35,2,-9.999,9,40.1
Kaiyo,9701,141,1996,12,16,17,27,7.124,146.843,362.15,2,-9.99,9,-99,-9.9,998.9,-99.9,29.33,2,-9.999,9,40.1
Kaiyo,9701,142,1996,12,16,17,39,7.086,146.864,-9.99,9,366.6,2,-99,-9.9,998.8,-99.9,29.31,2,-9.999,9,40
Kaiyo,9701,143,1996,12,16,17,52,7.049,146.885,-9.99,9,366.41,2,-99,-9.9,998.8,-99.9,29.31,2,-9.999,9,40
Kaiyo,9701,144,1996,12,16,17,57,7.032,146.895,362.02,2,-9.99,9,-99,-9.9,998.8,-99.9,29.34,2,-9.999,9,40.1
Kaiyo,9701,145,1996,12,16,18,10,6.994,146.916,-9.99,9,368,2,-99,-9.9,998.9,-99.9,29.41,2,-9.999,9,40.3
Kaiyo,9701,146,1996,12,16,18,22,6.956,146.938,-9.99,9,367.88,2,-99,-9.9,998.8,-99.9,29.43,2,-9.999,9,40.3
Kaiyo,9701,147,1996,12,16,18,28,6.938,146.949,362.02,2,-9.99,9,-99,-9.9,998.9,-99.9,29.43,2,-9.999,9,40.3
Kaiyo,9701,148,1996,12,16,18,57,6.851,146.998,362.16,2,-9.99,9,-99,-9.9,999.2,-99.9,29.45,2,-9.999,9,40.3
Kaiyo,9701,149,1996,12,16,19,9,6.815,147.02,-9.99,9,367.74,2,-99,-9.9,999.3,-99.9,29.48,2,-9.999,9,40.4
Kaiyo,9701,150,1996,12,16,19,22,6.777,147.043,-9.99,9,367.98,2,-99,-9.9,999.3,-99.9,29.49,2,-9.999,9,40.4
Kaiyo,9701,151,1996,12,16,19,27,6.761,147.053,362.03,2,-9.99,9,-99,-9.9,999.5,-99.9,29.5,2,-9.999,9,40.5
Kaiyo,9701,152,1996,12,16,19,40,6.724,147.075,-9.99,9,368.11,2,-99,-9.9,999.7,-99.9,29.56,2,-9.999,9,40.6
Kaiyo,9701,153,1996,12,16,19,52,6.688,147.097,-9.99,9,367.68,2,-99,-9.9,1000.1,-99.9,29.54,2,-9.999,9,40.5
Kaiyo,9701,154,1996,12,16,19,58,6.671,147.108,362.05,2,-9.99,9,-99,-9.9,1000.2,-99.9,29.56,2,-9.999,9,40.6
Kaiyo,9701,155,1996,12,16,20,27,6.587,147.16,363.18,2,-9.99,9,-99,-9.9,1000.5,-99.9,29.58,2,-9.999,9,40.6
Kaiyo,9701,156,1996,12,16,20,39,6.55,147.182,-9.99,9,366.18,2,-99,-9.9,1000.8,-99.9,29.59,2,-9.999,9,40.7
Kaiyo,9701,157,1996,12,16,20,52,6.513,147.205,-9.99,9,365.54,2,-99,-9.9,1000.9,-99.9,29.6,2,-9.999,9,40.7
Kaiyo,9701,158,1996,12,16,20,57,6.496,147.215,362.1,2,-9.99,9,-99,-9.9,1001.1,-99.9,29.6,2,-9.999,9,40.7
Kaiyo,9701,159,1996,12,16,21,10,6.459,147.238,-9.99,9,365.3,2,-99,-9.9,1001.3,-99.9,29.61,2,-9.999,9,40.7
Kaiyo,9701,160,1996,12,16,21,22,6.422,147.259,-9.99,9,362.94,2,-99,-9.9,1001.3,-99.9,29.52,2,-9.999,9,40.5
Kaiyo,9701,161,1996,12,16,21,28,6.405,147.269,362.12,2,-9.99,9,-99,-9.9,1001.4,-99.9,29.55,2,-9.999,9,40.6
Kaiyo,9701,162,1996,12,16,21,57,6.32,147.317,362.54,2,-9.99,9,-99,-9.9,1001.7,-99.9,29.65,2,-9.999,9,40.8
Kaiyo,9701,163,1996,12,16,22,9,6.283,147.339,-9.99,9,364.38,2,-99,-9.9,1001.8,-99.9,29.67,2,-9.999,9,40.9
Kaiyo,9701,164,1996,12,16,22,22,6.247,147.359,-9.99,9,364.78,2,-99,-9.9,1002,-99.9,29.7,2,-9.999,9,40.9
Kaiyo,9701,165,1996,12,16,22,27,6.229,147.368,362.04,2,-9.99,9,-99,-9.9,1002.1,-99.9,29.72,2,-9.999,9,41
Kaiyo,9701,166,1996,12,16,22,40,6.193,147.388,-9.99,9,364.96,2,-99,-9.9,1002.1,-99.9,29.68,2,-9.999,9,40.9
Kaiyo,9701,167,1996,12,16,22,52,6.155,147.409,-9.99,9,365.06,2,-99,-9.9,1002.3,-99.9,29.71,2,-9.999,9,41
Kaiyo,9701,168,1996,12,16,22,58,6.138,147.418,362,2,-9.99,9,-99,-9.9,1002.4,-99.9,29.66,2,-9.999,9,40.8
Kaiyo,9701,169,1996,12,16,23,27,6.048,147.459,362.45,2,-9.99,9,-99,-9.9,1002.3,-99.9,29.71,2,-9.999,9,41
Kaiyo,9701,170,1996,12,16,23,39,6.008,147.475,-9.99,9,366.95,2,-99,-9.9,1002.3,-99.9,29.73,2,-9.999,9,41
Kaiyo,9701,171,1996,12,16,23,52,5.983,147.503,-9.99,9,366.79,2,-99,-9.9,1002.3,-99.9,29.73,2,-9.999,9,41
Kaiyo,9701,172,1996,12,16,23,57,5.98,147.507,361.94,2,-9.99,9,-99,-9.9,1002.1,-99.9,29.74,2,-9.999,9,41
Kaiyo,9701,173,1996,12,17,0,10,5.979,147.512,-9.99,9,371.84,2,-99,-9.9,1002.2,-99.9,29.76,2,-9.999,9,41.1
Kaiyo,9701,174,1996,12,17,0,22,5.979,147.504,-9.99,9,370.25,2,-99,-9.9,1002.1,-99.9,29.74,2,-9.999,9,41
Kaiyo,9701,175,1996,12,17,0,28,5.979,147.504,362.66,2,-9.99,9,-99,-9.9,1002,-99.9,29.73,2,-9.999,9,41
Kaiyo,9701,176,1996,12,17,0,57,5.978,147.507,362.61,2,-9.99,9,-99,-9.9,1001.5,-99.9,29.73,2,-9.999,9,41
Kaiyo,9701,177,1996,12,17,1,9,5.978,147.507,-9.99,9,369.94,2,-99,-9.9,1001.3,-99.9,29.73,2,-9.999,9,41
Kaiyo,9701,178,1996,12,17,1,22,5.978,147.507,-9.99,9,371.19,2,-99,-9.9,1001.3,-99.9,29.75,2,-9.999,9,41
Kaiyo,9701,179,1996,12,17,1,27,5.978,147.507,362.94,2,-9.99,9,-99,-9.9,1001.1,-99.9,29.75,2,-9.999,9,41
Kaiyo,9701,180,1996,12,17,1,40,5.978,147.508,-9.99,9,371.19,2,-99,-9.9,1000.9,-99.9,29.75,2,-9.999,9,41
Kaiyo,9701,181,1996,12,17,1,52,5.979,147.508,-9.99,9,372.94,2,-99,-9.9,1000.6,-99.9,29.76,2,-9.999,9,41.1
Kaiyo,9701,182,1996,12,17,1,58,5.978,147.51,364.2,2,-9.99,9,-99,-9.9,1000.5,-99.9,29.75,2,-9.999,9,41
Kaiyo,9701,183,1996,12,17,2,27,5.977,147.519,467.62,4,-9.99,9,-99,-9.9,1000.1,-99.9,29.76,2,-9.999,9,41.1
Kaiyo,9701,184,1996,12,17,2,39,5.977,147.519,-9.99,9,371.87,2,-99,-9.9,1000.1,-99.9,29.78,2,-9.999,9,41.1
Kaiyo,9701,185,1996,12,17,2,52,5.977,147.519,-9.99,9,371.77,2,-99,-9.9,999.8,-99.9,29.77,2,-9.999,9,41.1
Kaiyo,9701,186,1996,12,17,2,57,5.977,147.52,424.5,4,-9.99,9,-99,-9.9,999.7,-99.9,29.77,2,-9.999,9,41.1
Kaiyo,9701,187,1996,12,17,3,10,5.977,147.521,-9.99,9,372.79,2,-99,-9.9,999.5,-99.9,29.79,2,-9.999,9,41.1
Kaiyo,9701,188,1996,12,17,3,22,5.976,147.522,-9.99,9,373.2,2,-99,-9.9,999.4,-99.9,29.79,2,-9.999,9,41.1
Kaiyo,9701,189,1996,12,17,3,28,5.975,147.524,362.8,2,-9.99,9,-99,-9.9,999.2,-99.9,29.78,2,-9.999,9,41.1
Kaiyo,9701,190,1996,12,17,3,57,5.975,147.523,362.42,2,-9.99,9,-99,-9.9,998.6,-99.9,29.77,2,-9.999,9,41.1
Kaiyo,9701,191,1996,12,17,4,9,5.977,147.509,-9.99,9,369.61,2,-99,-9.9,998.6,-99.9,29.79,2,-9.999,9,41.2
Kaiyo,9701,192,1996,12,17,4,22,5.985,147.503,-9.99,9,370.85,2,-99,-9.9,998.7,-99.9,29.79,2,-9.999,9,41.2
Kaiyo,9701,193,1996,12,17,4,27,5.985,147.501,362.23,2,-9.99,9,-99,-9.9,998.6,-99.9,29.79,2,-9.999,9,41.2
Kaiyo,9701,194,1996,12,17,4,40,5.983,147.502,-9.99,9,370.72,2,-99,-9.9,998.5,-99.9,29.79,2,-9.999,9,41.2
Kaiyo,9701,195,1996,12,17,4,52,5.994,147.496,-9.99,9,371.21,2,-99,-9.9,998.4,-99.9,29.83,2,-9.999,9,41.2
Kaiyo,9701,196,1996,12,17,4,58,5.999,147.492,362.08,2,-9.99,9,-99,-9.9,998.4,-99.9,29.83,2,-9.999,9,41.2
Kaiyo,9701,197,1996,12,17,5,27,6.011,147.485,362.38,2,-9.99,9,-99,-9.9,998.4,-99.9,29.77,2,-9.999,9,41.1
Kaiyo,9701,198,1996,12,17,5,39,6.006,147.485,-9.99,9,370.09,2,-99,-9.9,998.3,-99.9,29.74,2,-9.999,9,41
Kaiyo,9701,199,1996,12,17,5,52,5.986,147.47,-9.99,9,368.68,2,-99,-9.9,998.4,-99.9,29.77,2,-9.999,9,41.1
Kaiyo,9701,200,1996,12,17,5,57,5.986,147.472,362.18,2,-9.99,9,-99,-9.9,998.5,-99.9,29.79,2,-9.999,9,41.1
Kaiyo,9701,201,1996,12,17,6,10,5.985,147.475,-9.99,9,373.36,2,-99,-9.9,998.7,-99.9,29.78,2,-9.999,9,41.1
Kaiyo,9701,202,1996,12,17,6,22,5.985,147.469,-9.99,9,369.33,2,-99,-9.9,998.8,-99.9,29.76,2,-9.999,9,41.1
Kaiyo,9701,203,1996,12,17,6,28,5.975,147.469,362.04,2,-9.99,9,-99,-9.9,998.9,-99.9,29.75,2,-9.999,9,41
Kaiyo,9701,204,1996,12,17,6,57,5.888,147.471,362.41,2,-9.99,9,-99,-9.9,998.9,-99.9,29.79,2,-9.999,9,41.2
Kaiyo,9701,205,1996,12,17,7,9,5.851,147.471,-9.99,9,367.73,2,-99,-9.9,999.1,-99.9,29.76,2,-9.999,9,41.1
Kaiyo,9701,206,1996,12,17,7,22,5.813,147.471,-9.99,9,367.82,2,-99,-9.9,999.3,-99.9,29.76,2,-9.999,9,41.1
Kaiyo,9701,207,1996,12,17,7,27,5.796,147.472,362.24,2,-9.99,9,-99,-9.9,999.6,-99.9,29.73,2,-9.999,9,41
Kaiyo,9701,208,1996,12,17,7,40,5.757,147.471,-9.99,9,365.39,2,-99,-9.9,999.7,-99.9,29.71,2,-9.999,9,41
Kaiyo,9701,209,1996,12,17,7,52,5.719,147.471,-9.99,9,364.87,2,-99,-9.9,999.8,-99.9,29.75,2,-9.999,9,41
Kaiyo,9701,210,1996,12,17,7,58,5.702,147.472,362.16,2,-9.99,9,-99,-9.9,1000,-99.9,29.73,2,-9.999,9,41
Kaiyo,9701,211,1996,12,17,8,27,5.612,147.475,362.25,2,-9.99,9,-99,-9.9,999.9,-99.9,29.69,2,-9.999,9,40.9
Kaiyo,9701,212,1996,12,17,8,39,5.574,147.475,-9.99,9,364.69,2,-99,-9.9,1000.2,-99.9,29.76,2,-9.999,9,41.1
Kaiyo,9701,213,1996,12,17,8,52,5.535,147.476,-9.99,9,364.68,2,-99,-9.9,1000.4,-99.9,29.67,2,-9.999,9,40.9
Kaiyo,9701,214,1996,12,17,8,57,5.519,147.477,362.04,2,-9.99,9,-99,-9.9,1000.4,-99.9,29.62,2,-9.999,9,40.8
Kaiyo,9701,215,1996,12,17,9,10,5.481,147.477,-9.99,9,363.73,2,-99,-9.9,1000.7,-99.9,29.6,2,-9.999,9,40.7
Kaiyo,9701,216,1996,12,17,9,22,5.445,147.477,-9.99,9,364.22,2,-99,-9.9,1000.7,-99.9,29.63,2,-9.999,9,40.8
Kaiyo,9701,217,1996,12,17,9,28,5.428,147.478,361.86,2,-9.99,9,-99,-9.9,1000.8,-99.9,29.64,2,-9.999,9,40.8
Kaiyo,9701,218,1996,12,17,9,57,5.344,147.479,362.79,2,-9.99,9,-99,-9.9,1001.1,-99.9,29.67,2,-9.999,9,40.9
Kaiyo,9701,219,1996,12,17,10,9,5.308,147.48,-9.99,9,366.73,2,-99,-9.9,1001.3,-99.9,29.7,2,-9.999,9,40.9
Kaiyo,9701,220,1996,12,17,10,22,5.272,147.481,-9.99,9,367.09,2,-99,-9.9,1001.5,-99.9,29.68,2,-9.999,9,40.9